[[{"header":{"parameterUnit":"m.s-1","parameterCategory":1,"la1":30.2991,"la2":30.254,"lo1":-89.0895,"lo2":-89.0444,"dy":0.0017,"dx":0.0017,"nx":28,"ny":28,"refTime":"2024-06-28T03:00:00:Z","depth":0,"parameterNumber":2,"parameterNumberName":"U-component_of_WINDS"},"data":[0,0,0,0,0,0,0,0,0,0,0,0,0,0,0,0,0,0,0,0,0,0,0,0,0,0,0,0,0,0,0,0,0,0,0,0,0,0,0,0,0,0,0,0,0,0,0,0,0,0,0,0,0,0,0,0,0,0,1.2587,1.2587,0,1.2586,1.2586,1.2586,1.2485,1.2483,1.248,1.2477,1.2486,1.2488,1.2491,0,0,0,0,0,0,0,0,0,0,0,0,0,1.2508,1.251,1.2587,1.2587,1.2587,1.2586,1.2586,1.2586,1.2486,1.2482,1.2479,1.2476,1.2485,1.2488,1.2491,0,0,0,0,0,0,0,0,0,0,0,0,0,1.2528,1.251,1.2587,1.2536,1.2532,1.2586,1.2586,1.2586,1.2486,1.2482,1.2478,1.2475,1.2484,1.2488,1.2492,1.2596,0,0,1.2504,1.2506,0,0,0,0,0,0,0,0,1.2527,1.2531,1.2544,1.254,1.2535,1.2531,1.2561,1.259,1.2487,1.2504,1.2477,1.2473,1.2505,1.2507,1.2516,1.2597,1.2597,1.2504,1.2507,1.2509,1.251,0,0,0,0,0,0,0,1.2526,1.2531,1.2587,1.2544,1.2539,1.2516,1.2514,1.2566,1.2527,1.2502,1.2495,1.2496,1.2502,1.2512,1.2515,1.2597,1.2504,1.2508,1.251,1.2512,1.276,1.2764,0,0,0,0,0,0,1.253,1.253,1.2587,1.2586,1.2521,1.252,1.2519,1.2537,1.2526,1.252,1.2499,1.2491,1.2507,1.2511,1.2515,1.2634,1.2509,1.2512,1.2515,1.2755,1.2761,1.2765,0,0,0,0,0,0,1.2529,1.2536,1.2587,1.2556,1.2561,1.2526,1.2547,1.2539,1.2549,1.2523,1.2517,1.2516,1.2504,1.2509,1.2575,1.2633,1.2514,1.2518,1.2751,1.2757,1.2763,1.2874,0,0,0,0,0,0,1.2527,1.2536,1.2575,1.2558,1.2563,1.2646,1.2551,1.2542,1.2555,1.2544,1.2538,1.2533,1.2501,1.257,1.2579,1.2636,1.2521,1.2745,1.2753,1.2761,1.2865,1.2884,1.2899,0,0,0,0,0,1.2525,1.261,1.2577,1.2585,1.261,1.2649,1.2652,1.2611,1.256,1.2599,1.2582,1.2533,1.2625,1.2577,1.2587,1.2646,1.2742,1.2751,1.276,1.2858,1.288,1.2899,0,0,0,0,0,0,1.2639,1.2607,1.2571,1.2652,1.2653,1.2632,1.268,1.2637,1.2656,1.2645,1.2596,1.2595,1.2669,1.2664,1.2612,1.2745,1.2674,1.2686,1.2745,1.2766,1.2783,1.2782,1.2524,0,0,0,0,0,1.2673,1.2705,1.2676,1.2751,1.2753,1.2716,1.2732,1.2699,1.2701,1.2702,1.269,1.2695,1.2724,1.2745,1.2771,1.2864,1.286,1.2909,1.2926,1.294,1.2951,1.2996,1.3017,1.2796,1.2796,1.2795,0,0,1.2745,1.2731,1.2756,1.2773,1.2771,1.2806,1.2718,1.2761,1.2787,1.2709,1.2769,1.276,1.2762,1.2841,1.2876,1.284,1.3011,1.2952,1.2963,1.2967,1.3008,1.3029,1.3048,1.2802,1.2801,1.28,0,0,1.2894,1.2887,1.2946,1.2944,1.2939,1.2913,1.2928,1.2912,1.2901,1.2959,1.2901,1.2932,1.2985,1.2987,1.2996,1.314,1.3095,1.315,1.3239,1.3284,1.3301,1.3316,1.3366,1.3384,1.3161,1.3161,1.3161,0,1.2985,1.3034,1.2984,1.3028,1.3037,1.2963,1.3023,1.3024,1.303,1.3039,1.2997,1.3057,1.3055,1.3131,1.3165,1.3175,1.319,1.3151,1.3302,1.3317,1.333,1.3377,1.3396,1.3167,1.3167,1.3166,1.3165,0,1.3145,1.318,1.3228,1.323,1.3244,1.3297,1.3255,1.3276,1.3241,1.322,1.3279,1.3271,1.3293,1.3308,1.3277,1.338,1.3357,1.331,1.3238,1.3359,1.3402,1.3419,1.3177,1.3174,1.3172,1.3171,0,0,1.3369,1.3338,1.3357,1.3354,1.3342,1.3368,1.3417,1.3433,1.3451,1.3457,1.3496,1.3539,1.3493,1.3503,1.347,1.351,1.3621,1.3457,1.3456,1.3487,1.3731,1.3766,1.3788,1.3591,1.3594,1.3597,1.373,0,1.3511,1.3589,1.3542,1.3628,1.3658,1.3586,1.3628,1.3625,1.3606,1.363,1.361,1.364,1.3579,1.3583,1.3619,1.36,1.367,1.359,1.3628,1.363,1.3629,1.3811,1.3849,1.3976,1.3747,1.375,1.3752,0,1.3688,1.3695,1.3783,1.3759,1.377,1.3808,1.3817,1.3841,1.3836,1.3819,1.3827,1.3783,1.383,1.3757,1.382,1.3767,1.3779,1.3772,1.3776,1.3778,1.3698,1.3817,1.4015,1.4034,1.3779,1.3776,1.3775,0,1.384,1.3873,1.3927,1.3928,1.3903,1.3931,1.3923,1.3913,1.3924,1.3933,1.394,1.3956,1.3965,1.3978,1.394,1.3892,1.4007,1.3933,1.3995,1.3996,1.4023,1.4022,1.4225,1.4033,1.4032,1.4032,1.4031,0,1.4003,1.4059,1.3994,1.4029,1.4088,1.4034,1.4096,1.408,1.4071,1.4101,1.4042,1.4072,1.402,1.4045,1.4016,1.4071,1.4076,1.4064,1.4055,1.4068,1.407,1.4076,1.4066,1.4037,1.4036,1.4035,1.4034,0,1.4184,1.4143,1.4197,1.4167,1.4161,1.4206,1.4181,1.4211,1.4186,1.4224,1.4231,1.4192,1.4218,1.418,1.4204,1.4184,1.4259,1.4238,1.426,1.4253,1.4316,1.431,1.4531,1.4556,1.4348,1.435,1.4352,0,1.4291,1.4331,1.4303,1.4316,1.431,1.4334,1.4343,1.4292,1.4305,1.4298,1.433,1.4349,1.4362,1.4407,1.4383,1.4399,1.4377,1.4453,1.438,1.4391,1.4377,1.4374,1.4377,1.4469,1.4471,1.4473,1.4475,0,1.4483,1.4459,1.4474,1.448,1.4492,1.4496,1.4496,1.4511,1.4456,1.4474,1.4497,1.4507,1.4527,1.4548,1.4557,1.455,1.4504,1.4498,1.4512,1.4527,1.4537,1.453,1.43,1.4493,1.4492,1.449,1.4489,1.4488,1.4629,1.4659,1.4643,1.466,1.4653,1.4653,1.4678,1.4654,1.4671,1.4681,1.465,1.468,1.4671,1.4678,1.4675,1.4699,1.4666,1.4688,1.4694,1.47,1.4708,1.4533,1.4701,1.47,1.47,1.4699,1.4699,0,1.4816,1.4801,1.4817,1.4815,1.4829,1.4779,1.4775,1.4791,1.4816,1.481,1.4822,1.4847,1.4866,1.484,1.4854,1.4878,1.4857,1.4883,1.4881,1.4879,1.4738,1.4723,1.4899,1.4899,1.4899,1.4899,1.4899,1.4899,1.4915,1.4963,1.4937,1.4981,1.4966,1.4992,1.4993,1.4992,1.4986,1.5016,1.5029,1.5011,1.4997,1.5008,1.5022,1.5014,1.5022,1.5055,1.504,1.4909,1.489,1.4871,1.4856,1.5058,1.5058,1.5179,1.518,1.5181]},{"header":{"parameterUnit":"m.s-1","parameterCategory":1,"la1":30.2991,"la2":30.254,"lo1":-89.0895,"lo2":-89.0444,"dy":0.0017,"dx":0.0017,"nx":28,"ny":28,"refTime":"2024-06-28T03:00:00:Z","depth":0,"parameterNumber":3,"parameterNumberName":"V-component_of_WINDS"},"data":[0,0,0,0,0,0,0,0,0,0,0,0,0,0,0,0,0,0,0,0,0,0,0,0,0,0,0,0,0,0,0,0,0,0,0,0,0,0,0,0,0,0,0,0,0,0,0,0,0,0,0,0,0,0,0,0,0,0,5.2691,5.2691,0,5.2735,5.2735,5.2736,5.2641,5.2637,5.2634,5.2632,5.2671,5.2675,5.2678,0,0,0,0,0,0,0,0,0,0,0,0,0,5.2518,5.2522,5.2691,5.2691,5.2692,5.2735,5.2735,5.2736,5.2641,5.2637,5.2634,5.263,5.267,5.2674,5.2679,0,0,0,0,0,0,0,0,0,0,0,0,0,5.2581,5.2523,5.269,5.265,5.2647,5.2734,5.2735,5.2736,5.2642,5.2637,5.2633,5.2628,5.2668,5.2674,5.2679,5.2807,0,0,5.2697,5.27,0,0,0,0,0,0,0,0,5.2577,5.2587,5.2655,5.2653,5.2649,5.2678,5.2689,5.276,5.2643,5.2643,5.2631,5.2626,5.2676,5.2681,5.2699,5.2809,5.2811,5.2698,5.2701,5.2704,5.2706,0,0,0,0,0,0,0,5.2573,5.2584,5.2708,5.2656,5.2653,5.2627,5.2631,5.2702,5.2685,5.2643,5.2636,5.2643,5.2674,5.2694,5.27,5.2811,5.2698,5.2703,5.2706,5.2709,5.3026,5.3031,0,0,0,0,0,0,5.2575,5.2582,5.2706,5.2709,5.2601,5.2634,5.2638,5.2673,5.2684,5.2681,5.2647,5.2639,5.2686,5.2693,5.2701,5.285,5.2704,5.2709,5.2713,5.3021,5.3027,5.3033,0,0,0,0,0,0,5.2571,5.2587,5.2705,5.2644,5.2657,5.2642,5.2682,5.2676,5.2696,5.2687,5.2683,5.2671,5.2683,5.2692,5.2781,5.285,5.2712,5.2717,5.3016,5.3023,5.303,5.315,0,0,0,0,0,0,5.2567,5.2586,5.2636,5.2646,5.266,5.2787,5.2686,5.268,5.2707,5.2697,5.2708,5.2706,5.268,5.2773,5.2787,5.2855,5.2722,5.3009,5.3019,5.3028,5.314,5.3161,5.3179,0,0,0,0,0,5.2561,5.2667,5.2639,5.2655,5.2723,5.2791,5.2799,5.2769,5.2713,5.2762,5.2756,5.2706,5.2841,5.2783,5.2798,5.2869,5.3005,5.3016,5.3027,5.3131,5.3157,5.3178,0,0,0,0,0,0,5.2663,5.2667,5.2636,5.2749,5.2771,5.2775,5.2836,5.2797,5.2833,5.2822,5.2781,5.2784,5.2881,5.2884,5.282,5.2993,5.2913,5.2928,5.2987,5.3011,5.303,5.3026,5.2727,0,0,0,0,0,5.27,5.2757,5.2756,5.2856,5.2868,5.2851,5.2879,5.2854,5.2874,5.2882,5.2882,5.2902,5.2949,5.298,5.3022,5.314,5.314,5.3196,5.3216,5.3231,5.3244,5.3305,5.333,5.3069,5.3069,5.3069,0,0,5.2774,5.2783,5.2821,5.2877,5.289,5.2948,5.2859,5.2924,5.2966,5.2891,5.2976,5.2977,5.2996,5.31,5.3145,5.3105,5.3316,5.3246,5.3258,5.3262,5.3319,5.3344,5.3366,5.3077,5.3075,5.3074,0,0,5.2939,5.2953,5.3036,5.3053,5.3076,5.3063,5.3083,5.3094,5.3092,5.3177,5.3122,5.317,5.3252,5.3267,5.3286,5.3458,5.3412,5.3473,5.3573,5.3633,5.3653,5.3671,5.3731,5.3753,5.3486,5.3486,5.3486,0,5.3027,5.3115,5.3084,5.3154,5.3178,5.3116,5.3199,5.3216,5.3251,5.3268,5.3223,5.3324,5.3333,5.3439,5.3481,5.3499,5.3519,5.347,5.3653,5.3671,5.3687,5.3744,5.3767,5.3493,5.3492,5.3491,5.3491,0,5.3222,5.3284,5.3349,5.3386,5.3419,5.3495,5.3473,5.3509,5.3482,5.3474,5.356,5.3568,5.3611,5.3634,5.3607,5.3736,5.3711,5.3661,5.3579,5.372,5.3772,5.3794,5.3503,5.3501,5.3499,5.3497,0,0,5.3451,5.3472,5.3496,5.3512,5.3533,5.3579,5.3652,5.3696,5.3727,5.3753,5.3811,5.3883,5.3836,5.3858,5.3832,5.3885,5.4019,5.3828,5.3827,5.3862,5.416,5.4197,5.4223,5.3989,5.3993,5.3997,5.4158,0,5.3614,5.3741,5.3715,5.3839,5.3894,5.3836,5.3899,5.3918,5.3912,5.3957,5.3949,5.4,5.3936,5.3948,5.3999,5.3992,5.4078,5.398,5.4041,5.4044,5.4037,5.425,5.4289,5.4441,5.4179,5.4182,5.4185,0,5.382,5.3856,5.3986,5.3999,5.4021,5.4078,5.4116,5.416,5.418,5.4172,5.4197,5.416,5.423,5.415,5.4245,5.4179,5.4203,5.4203,5.4208,5.4211,5.4122,5.4258,5.4489,5.4511,5.4217,5.4214,5.4212,0,5.3972,5.4054,5.4142,5.4157,5.4174,5.4216,5.4224,5.4239,5.4267,5.43,5.4317,5.4357,5.4378,5.4409,5.4384,5.4328,5.4483,5.44,5.4476,5.4477,5.451,5.4508,5.4747,5.4528,5.4528,5.4527,5.4527,0,5.4155,5.4236,5.421,5.4265,5.4354,5.4322,5.4411,5.4412,5.4426,5.4478,5.4429,5.4479,5.4443,5.4489,5.447,5.4551,5.4561,5.4555,5.4548,5.4558,5.4559,5.4572,5.456,5.4533,5.4532,5.4531,5.453,0,5.4339,5.4326,5.4418,5.4427,5.4431,5.4496,5.4503,5.4552,5.4543,5.461,5.4623,5.4609,5.466,5.4639,5.4693,5.468,5.4783,5.4763,5.4777,5.4771,5.4848,5.484,5.5102,5.5134,5.4897,5.4899,5.4901,0,5.4456,5.4518,5.4534,5.4567,5.4579,5.4632,5.4661,5.4632,5.4664,5.4691,5.4737,5.4785,5.4821,5.4905,5.4898,5.4939,5.4919,5.5008,5.4924,5.4932,5.4918,5.4914,5.492,5.5024,5.5027,5.5029,5.5031,0,5.4664,5.4655,5.4699,5.4742,5.4779,5.481,5.4837,5.4866,5.4839,5.4877,5.493,5.4958,5.5014,5.5061,5.5098,5.5104,5.5063,5.5058,5.5077,5.5087,5.5092,5.5089,5.4821,5.5051,5.5049,5.5048,5.5047,5.5046,5.4817,5.4869,5.4889,5.494,5.4958,5.4985,5.5032,5.503,5.5075,5.5119,5.5099,5.5161,5.5178,5.5222,5.5234,5.528,5.5245,5.5274,5.528,5.5288,5.5297,5.5087,5.5287,5.5286,5.5286,5.5285,5.5285,0,5.5021,5.5031,5.5079,5.512,5.516,5.5121,5.5149,5.5184,5.524,5.526,5.5298,5.5358,5.5404,5.5402,5.5444,5.5481,5.5463,5.5493,5.5489,5.549,5.5327,5.5305,5.5507,5.5507,5.5507,5.5506,5.5506,5.5506,5.5131,5.5217,5.521,5.5304,5.5313,5.5374,5.5393,5.5417,5.5434,5.5504,5.5543,5.5542,5.5553,5.5596,5.5635,5.5633,5.565,5.5687,5.5677,5.5524,5.5502,5.5481,5.546,5.5691,5.5691,5.5837,5.5838,5.5839]}]]